Weather in Drogheda

Ireland     53°43′05″N   6°21′22″W
temp.,
°C
wind,
m/s
gust,
m/s
humid.,
%
clouds,
%
prec.,
mm/h
press.,
hPa
HPBL,
m
29 june, wed
wed2901:00+12ssw3789100 1.3 1006158
04:00+11sw4792100 0.1 1006233
07:00+11sw3690100 0.1 1006230
10:00+12sw458893 0.1 1007442
13:00+15sse347440 0.3 1007508
16:00+15se347792 0.9 1007446
19:00+14sse228491 3.1 1007150
22:00+13wnw2388100 1.3 100864
30 june, thu
thu3001:00+12nw4693100 2.0 1008209
04:00+11wnw5694100 1.6 1008231
07:00+10w5894100 7.1 1009326
10:00+12wnw468786 0.9 1010480
13:00+14w237870 1.6 1010411
16:00+15wnw457221 0.3 1010441
19:00+16s01715 0.3 1010441
22:00+13w348277 0.1 101146
1 july, fri
fri101:00+12wnw3586100 0.1 1012116
04:00+11w5790100 0.0 1012181
07:00+11w6892100 0.0 1013314
10:00+14w577973 0.1 1013451
13:00+16wsw676530 0.2 1013588
16:00+15sw5874100 0.3 1013314
19:00+16ssw467823 0.4 1012419
22:00+14ssw712858 0.3 1012450
2 july, sat
sat201:00+12wsw7128914 0.7 1013577
04:00+11sw6119299 0.0 1013420
07:00+11sw71289100 0.1 1014543
10:00+13wsw8108054 0.1 1014745
13:00+15wsw577255 0.3 1015546
16:00+16w687497 0.4 1016429
19:00+15w468075 0.9 1017252
22:00+13w4586100 0.3 101980
3 july, sun
sun301:00+12nw478990 0.3 1020184
04:00+10wnw45927 0.0 1020134
07:00+10w469299 0.0 1021187
10:00+14wnw458025 0.0 1022640
13:00+15wnw2374100 0.3 1022511
16:00+16w456774 0.1 1022510
19:00+15w4678100 0.2 1022186
22:00+13wsw478573 0.1 1022191